Preview of NWS' New Version of Forecast
This preview is not operational and should not be used for support decisions.

Regional Weather Roundup (RWR)

Issued by National Weather Service (NWS)

                            
000
ASUS43 KDTX 222010
RWRMI 
MICHIGAN HOURLY REGIONAL WEATHER ROUNDUP
NATIONAL WEATHER SERVICE DETROIT/PONTIAC MI
400 PM EDT MON JUL 22 2019

NOTE: "FAIR" INDICATES FEW OR NO CLOUDS BELOW 12,000 FEET WITH NO
SIGNIFICANT WEATHER AND/OR OBSTRUCTION TO VISIBILITY.

MIZ047>049-052>055-059>063-066>070-074>076-081>083-222100-
SOUTHEAST LOWER MICHIGAN
  
CITY           SKY/WX    TMP DP  RH WIND       PRES   REMARKS
ADRIAN         FAIR      74  56  53 N8        29.96S                  
ALMA           PTSUNNY   77  48  35 N12G18    29.99S                  
ANN ARBOR        N/A    N/A N/A N/A MISG      29.96R                  
BAD AXE        FAIR      71  51  49 N18G25    29.98S                  
CARO           FAIR      76  53  45 N7        29.97S                  
DETROIT CITY   FAIR      77  55  46 N13       29.93S                  
DETROIT        PTSUNNY   75  56  51 N13       29.94S                  
FLINT          PTSUNNY   75  56  51 N14G20    29.96F                  
GROSSE ILE     FAIR      77  58  51 N13       29.92S                  
HILLSDALE      FAIR      72  54  53 NW12      29.98S                  
HOWELL         FAIR      72  52  50 N12G18    29.98S                  

CITY           SKY/WX    TMP DP  RH WIND       PRES   REMARKS
JACKSON        FAIR      74  57  55 VRB5G16   29.97S                  
LAMBERTVILLE   FAIR      76  62  62 NW6       29.94S                  
LANSING        FAIR      74  56  53 N12       29.99S                  
LAPEER         PTSUNNY   75  55  49 N13G21    29.96S                  
MASON          PTSUNNY   74  57  55 N15G25    29.98S                  
MONROE         FAIR      77  63  61 NW12G18   29.93R                  
MT. CLEMENS    MOSUNNY   77  57  50 N14       29.93F                  
PONTIAC        PTSUNNY   73  53  49 N13G22    29.94R                  
PORT HOPE        N/A     71  56  58 VRB6      29.97S                  
PORT HURON     PTSUNNY   73  61  64 N13       29.94S                  
TRI CITIES     FAIR      76  59  55 NE12      29.98F                  
MIDLAND        FAIR      77  53  43 NW12      29.97F                  
TROY           FAIR      74  49  42 N12       29.96S                  
SAGINAW HB     FAIR      75  55  50 N10       29.97F                  
$$
MIZ043>046-050>051-056>058-064>065-071>073-077>080-222100-
SOUTHWEST LOWER MICHIGAN
  
CITY           SKY/WX    TMP DP  RH WIND       PRES   REMARKS
BATTLE CREEK   FAIR      75  55  49 N13       29.99F                  
BENTON HARBOR  FAIR      71  58  63 N10G20    30.03S                  
BIG RAPIDS     FAIR      75  42  31 N9        30.02S                  
COLDWATER      PTSUNNY   71  56  58 N10       29.99S                  
FREMONT        FAIR      76  44  32 N13       30.02S                  
HOLLAND        FAIR      75  60  59 NW13G25   30.01F                  
GRAND RAPIDS   PTSUNNY   76  53  44 N13       29.99F                  
IONIA          FAIR      73  52  46 N8G18     29.99S                  
KALAMAZOO      PTSUNNY   76  55  48 N15G22    30.00S                  
LUDINGTON      FAIR      72  49  44 N14G23    30.05F                  
MARSHALL       PTSUNNY   74  54  49 CALM      29.98F                  
MOUNT PLEASANT FAIR      77  49  37 N7        29.99S                  
MUSKEGON       FAIR      75  55  49 NW12G21   30.02S                  
SOUTH HAVEN    FAIR      72  58  61 NW15G24   30.02S                  
$$
MIZ016>042-222100-
NORTHERN LOWER MICHIGAN
  
CITY           SKY/WX    TMP DP  RH WIND       PRES   REMARKS
ALPENA         FAIR      78  44  29 N16G23    29.99F                  
BEAVER ISLAND  FAIR      73  51  46 SW12      30.03F                  
BELLAIRE       FAIR      76  49  38 NW9G16    30.03F                  
CADILLAC       FAIR      75  40  28 NE13G18   30.04S                  
CHARLEVOIX     FAIR      74  54  48 W9        30.06F                  
FRANKFORT      FAIR      75  47  37 NW12      30.06F                  
GAYLORD        FAIR      72  45  37 NW10G17   30.03F                  
GRAYLING       FAIR      73  47  40 N7G17     30.01F                  
HARBOR SPRINGS FAIR      72  57  59 W8G16     30.02F                  
HOUGHTON LAKE  FAIR      75  45  34 N13G21    30.02F                  
MANISTEE       FAIR      73  53  49 NW14      30.05F                  
OSCODA         FAIR      75  48  38 NE10G16   29.97F                  
PELLSTON       FAIR      77  48  35 NW12G21   30.02F                  
ROGERS CITY    FAIR      75  47  37 NW9G16    30.00F                  
TRAVERSE CITY  FAIR      75  49  39 N10G18    30.03F                  
$$
MIZ007>008-015-222100-
EASTERN UPPER MICHIGAN
  
CITY           SKY/WX    TMP DP  RH WIND       PRES   REMARKS
KINROSS        FAIR      72  53  51 N16G22    30.00F                  
MACKINAC ISLAN FAIR      73  53  50 W10G18    30.00S                  
NEWBERRY       FAIR      73  46  36 N10G18    30.02S                  
S. S. MARIE    FAIR      72  51  47 NW14G22   30.00F                  
MUNISING         N/A     68  54  60 N7        30.07S                  
$$
MIZ004>006-011>014-085-222100-
CENTRAL UPPER MICHIGAN
  
CITY           SKY/WX    TMP DP  RH WIND       PRES   REMARKS
MANISTIQUE     FAIR      79  52  38 NW14G20   30.02S                  
ESCANABA       FAIR      78  50  37 NW7       30.03F                  
MENOMINEE        N/A     77  50  38 NW8       30.06F                  
SAWYER-GWINN   MOSUNNY   73  52  46 NE17      30.06S                  
$$
MIZ001>003-009>011-084-222100-
WESTERN UPPER MICHIGAN
  
CITY           SKY/WX    TMP DP  RH WIND       PRES   REMARKS
IRON MOUNTAIN  PTSUNNY   78  48  34 NW20G28   30.06F                  
HOUGHTON       FAIR      71  52  50 NW13      30.10F                  
COPPER HARBOR    N/A     69  57  65 N12       30.07F                  
IRONWOOD       FAIR      73  54  51 NW13      30.15F                  
$$

ABBREVIATIONS USED IN REMARKS
   TC - TEMPERATURE IN CELSIUS
  WCI - WIND CHILL INDEX
   HX - HEAT INDEX
  VSB - VISIBILITY